Location: Burland Observatory
(39.4088°N, 105.4217°W)
Time: 07:07:57
(UTC-07:00)

SR - Pass Details

Date: 14 December 2019
Orbit: 574 x 882 km, 66.7° (Epoch: 23 January)

Event Time Altitude Azimuth Distance (km) Brightness Sun altitude
Rises 07:58:03 0° 197° (SSW) 3,202 ? 6.3°
Reaches altitude 10° 08:00:22 10° 193° (SSW) 2,325 ? 6.6°
Maximum altitude 08:05:40 62° 114° (ESE) 928 ? 7.4°
Drops below altitude 10° 08:11:23 10° 35° (NE) 2,501 ? 8.3°
Sets 08:13:57 0° 33° (NNE) 3,463 ? 8.7°
